SCP
0 0 0 0 0 0 0 0 0 0 0 0 0 0 0 0 0 0 0 0 0 0 0 0 0 0 0 0 0 0 0 0 0 0 0 0 0 0 0 0 0 0 0
0 0 0 0 0 0 0 0 0 0 0 0 0 0 0 0 0 0 0 0 0 0 0 0 0 0 0 0 0 0 0 0 0 0 0 0 0 0 0 0 0 0 0
0 0 0 0 0 0 0 0 0 0 0 0 0 0 0 0 0 0 0 0 0 0 0 0 0 0 0 0 0 0 0 0 0 0 0 0 0 0 0 0 0 0 0
0 0 0 0 0 0 0 0 0 0 0 0 0 0 0 0 0 0 0 0 0 0 0 0 0 0 0 0 0 0 0 0 0 0 0 0 0 0 0 0 0 0 0
0 0 0 0 0 0 0 0 0 0 0 0 0 0 0 0 0 0 0 0 0 0 0 0 0 0 0 0 0 0 0 0 0 0 0 0 0 0 0 0 0 0 0
0 0 0 0 0 0 0 0 0 0 0 0 0 0 0 0 0 0 0 0 0 0 0 0 0 0 0 0 0 0 0 0 0 0 0 0 0 0 0 0 0 0 0
0 0 0 0 0 0 0 0 0 0 0 0 0 0 0 0 0 0 0 0 0 0 0 0 0 0 0 0 0 0 0 0 0 0 0 0 0 0 0 0 0 0 0
0 0 0 0 0 0 0 0 0 0 0 0 0 0 0 0 0 0 0 0 0 0 0 0 0 0 0 0 0 0 0 0 0 0 0 0 0 0 0 0 0 0 0
0 0 0 0 0 0 0 0 0 0 0 0 0 0 0 0 0 0 0 0 0 0 0 0 0 0 0 0 0 0 0 0 0 0 0 0 0 0 0 0 0 0 0
0 0 0 0 0 0 0 0 0 0 0 0 0 0 0 0 0 0 0 0 0 0 0 0 0 0 0 0 0 0 0 0 0 0 0 0 0 0 0 0 0 0 0
0 0 0 0 0 0 0 0 0 0 0 0 0 0 0 0 0 0 0 0 0 0 0 0 0 0 0 0 0 0 0 0 0 0 0 0 0 0 0 0 0 0 0
0 0 0 0 0 0 0 0 0 0 0 0 0 0 0 0 0 0 0 0 0 0 0 0 0 0 0 0 0 0 0 0 0 0 0 0 0 0 0 0 0 0 0
0 0 0 0 0 0 0 0 0 0 0 -0 -0 0 0 0 0 0 0 0 0 0 0 0 0 0 0 0 0 0 0 0 0 0 0 0 0 0 0 0 0 0 0
0 0 0 0 0 0 0 0 0 0 -0 -0 0 0 0 0 0 0 0 0 0 0 0 0 0 0 0 0 0 0 0 0 0 0 0 0 0 0 0 0 0 0 0
0 0 0 0 0 0 0 0 0 0 -0 0 0 0 0 0 0 0 0 0 0 0 0 0 0 0 0 0 0 0 0 0 0 0 0 0 0 0 0 0 0 0 0
0 0 0 0 0 0 0 0 0 0 0 0 0 0 0 0 0 0 0 0 0 0 0 0 0 0 0 0 0 0 0 0 0 0 0 0 0 0 0 0 0 0 0
0 0 0 0 0 0 0 0 0 0 0 0 0 0 0 0 0 0 0 0 0 0 0 0 0 0 0 0 0 0 0 0 0 0 0 0 0 0 0 0 0 0 0
0 0 0 0 0 0 0 0 0 0 0 0 0 0 0 0 0 0 0 0 0 0 0 0 0 0 0 0 0 0 0 0 0 0 0 0 0 0 0 0 0 0 0
0 0 0 0 0 0 0 0 0 0 0 0 0 0 0 0 0 0 0 0 0 0 0 0 0 0 0 0 0 0 0 0 0 0 0 0 0 0 0 0 0 0 0
0 0 0 0 0 0 0 0 0 0 0 0 0 0 0 0 0 0 0 0 0 0 0 0 0 0 0 0 0 0 0 0 0 0 0 0 0 0 0 0 0 0 0
0 0 0 0 0 0 0 0 0 0 0 0 0 0 0 0 0 0 0 0 0 0 0 0 0 0 0 0 0 0 0 0 0 0 0 0 0 0 0 0 0 0 0
0 0 0 0 0 0 0 0 0 0 0 0 0 0 0 0 0 0 0 0 0 0 0 0 0 0 0 0 0 0 0 0 0 0 0 0 0 0 0 0 0 0 0
0 0 0 0 0 0 0 0 0 0 0 0 0 0 0 0 0 0 0 0 0 0 0 0 0 0 0 0 0 0 0 0 0 0 0 0 0 0 0 0 0 0 0
0 0 0 0 0 0 0 0 0 0 0 0 0 0 0 0 0 0 0 0 0 0 0 0 0 0 0 0 0 0 0 0 0 0 0 0 0 0 0 0 0 0 0
0 0 0 0 0 0 0 0 0 0 0 0 0 0 0 0 0 0 0 0 0 0 0 0 0 0 0 0 0 0 0 0 0 0 0 0 0 0 0 0 0 0 0
0 0 0 0 0 0 0 0 0 0 0 0 0 0 0 0 0 0 0 0 0 0 0 0 0 0 0 0 0 0 0 0 0 0 0 0 0 0 0 0 0 0 0
Wind_Speed
4 5 10 11 13 13 14 14 14 14 15 16 16 16 17 17 18 18 18 18 18 19 19 20 20 20 20 20 19 20 20 20 20 20 19 19 19 19 18 18 16 11 18
7 6 10 11 13 14 14 14 14 14 15 16 16 16 16 17 17 17 17 18 18 18 19 19 19 19 19 18 18 18 19 19 19 18 18 16 18 18 18 17 16 11 17
9 8 9 11 13 13 13 13 13 14 15 15 16 16 16 16 17 17 17 17 17 18 18 18 18 18 17 17 17 18 18 18 17 17 15 8 10 17 17 17 16 16 16
10 8 9 11 13 13 13 13 13 14 15 15 15 15 16 16 16 16 16 17 17 17 17 17 17 16 16 17 17 17 17 17 16 14 8 6 7 15 16 16 15 15 15
9 7 9 12 13 14 14 14 14 14 15 15 15 15 15 15 15 16 16 16 16 16 16 16 16 16 16 16 17 17 17 17 15 11 6 6 5 13 14 14 14 14 13
8 7 9 12 13 14 14 14 14 14 14 15 15 15 15 15 15 15 15 15 15 15 15 15 14 14 15 16 16 15 15 15 11 6 6 5 5 12 13 13 12 12 12
8 6 8 11 12 13 14 14 13 14 14 14 14 14 14 14 14 14 15 15 15 15 14 14 13 13 13 14 15 14 13 13 7 6 5 5 6 11 11 11 11 11 10
9 7 7 10 11 12 12 13 13 13 14 14 14 13 13 13 13 14 14 14 14 14 13 13 12 12 12 13 13 13 11 8 7 6 5 4 7 10 10 9 9 9 8
8 7 6 7 9 11 11 11 12 12 12 13 13 13 12 12 12 12 12 13 13 13 12 11 10 10 11 11 12 12 10 9 4 3 3 3 6 8 8 7 7 7 6
7 7 6 6 6 6 7 11 11 11 11 11 12 11 11 11 11 11 9 11 12 12 11 10 9 9 9 9 10 10 9 6 3 3 2 2 4 5 5 5 4 4 4
8 6 6 7 7 7 6 9 9 10 10 10 9 10 8 5 5 6 7 9 10 10 9 8 7 6 6 7 8 7 6 2 2 1 0 1 2 2 2 2 2 2 2
11 9 7 7 8 7 6 6 4 5 5 5 4 5 4 4 4 5 7 8 8 7 7 6 5 4 3 3 4 5 2 2 1 1 1 3 2 1 2 2 3 3 4
11 10 8 8 8 7 5 5 3 3 3 4 5 4 4 4 3 3 2 3 4 4 2 2 2 1 0 1 1 1 1 1 0 1 2 5 5 5 5 6 6 7 7
11 11 9 9 8 7 6 5 4 4 3 3 4 5 4 3 3 3 2 2 2 1 2 1 1 1 1 1 1 1 2 1 1 1 3 7 8 9 9 10 10 10 10
11 11 11 10 10 8 7 5 5 5 4 4 4 5 5 4 4 4 3 3 3 2 2 2 2 2 1 2 2 2 3 3 3 3 3 8 10 12 13 13 13 14 14
12 12 11 11 10 9 8 6 6 5 5 5 4 5 6 5 5 4 4 3 3 3 3 2 2 2 2 2 3 3 4 4 4 5 4 6 10 13 15 16 16 16 17
13 11 11 11 10 10 9 8 6 6 5 5 5 6 6 5 5 5 4 4 3 3 3 2 2 1 2 2 3 4 4 5 5 6 6 5 5 10 14 17 18 18 18
11 12 11 9 10 10 8 7 5 5 6 5 5 5 6 6 6 5 4 4 4 3 3 2 2 1 2 3 3 4 4 4 7 7 6 6 5 5 9 15 17 18 19
13 13 12 11 11 10 8 6 6 5 5 5 5 5 6 6 6 5 4 4 4 3 3 2 2 2 2 3 4 4 5 5 6 6 7 7 6 6 6 10 13 15 18
13 13 13 12 11 9 7 5 4 4 4 4 5 5 6 5 6 5 4 4 4 3 2 2 2 2 2 3 4 5 6 7 5 6 7 6 5 6 6 6 6 7 14
12 13 14 13 12 9 7 6 6 6 4 4 4 6 7 6 6 6 4 4 4 4 4 3 2 2 2 1 2 5 5 5 5 5 4 4 5 5 5 5 5 5 6
14 14 14 14 13 11 9 7 4 4 3 4 4 5 6 6 6 5 6 4 5 4 4 3 3 2 1 1 1 3 5 5 3 3 3 3 4 3 4 6 6 6 6
13 15 13 14 13 12 9 5 4 3 3 4 4 4 5 6 6 6 6 5 5 4 4 4 4 4 3 2 3 2 2 4 5 4 3 3 3 3 4 5 6 6 7
12 11 12 13 12 12 11 9 9 7 7 6 4 4 4 5 5 5 5 4 4 3 4 4 4 3 3 3 2 3 4 3 4 6 4 3 4 4 5 5 5 6 6
8 8 9 10 11 12 12 12 10 8 6 4 4 5 4 3 3 3 4 4 3 3 3 3 2 3 3 3 2 2 3 3 4 5 8 6 4 4 4 5 5 5 6
4 5 6 9 10 11 12 12 11 10 8 6 5 5 3 2 2 2 2 2 2 2 2 2 2 2 2 2 2 2 2 3 3 4 8 9 8 5 5 5 4 5 4
Wind_Direction
145 155 132 126 119 113 108 104 101 99 96 92 89 87 85 85 84 82 82 81 81 80 80 80 79 78 77 77 77 76 74 71 68 67 67 69 70 69 68 66 62 57 63
145 144 130 125 119 115 111 109 106 104 100 96 93 91 89 88 87 85 84 83 83 82 82 81 81 79 77 77 78 79 78 74 71 67 65 65 68 68 68 67 67 65 65
131 129 125 123 120 118 116 113 109 106 103 100 98 95 93 91 90 88 87 86 85 84 85 84 82 79 76 74 75 79 80 76 72 67 61 46 61 69 68 66 66 66 67
130 127 125 123 122 121 119 115 112 110 106 103 100 98 96 94 94 92 91 89 88 87 87 86 83 79 75 74 74 80 82 78 73 66 51 40 51 69 68 67 65 65 66
122 122 127 125 125 123 120 116 113 113 110 107 103 100 98 96 96 94 92 91 89 89 88 86 83 78 74 73 73 80 85 83 75 62 44 38 45 70 70 69 67 64 64
120 124 129 125 125 125 122 118 116 116 114 109 106 102 100 99 98 97 95 93 91 89 88 86 81 77 73 71 71 78 86 87 75 57 43 34 43 70 72 71 70 68 66
125 125 128 124 124 124 124 122 118 118 116 111 108 106 104 103 103 101 99 96 95 93 90 86 81 76 72 69 68 72 83 90 80 64 47 32 55 69 70 69 68 67 66
131 126 124 123 122 122 121 122 120 120 119 115 112 109 107 105 106 105 102 101 99 96 92 87 81 75 68 64 62 63 71 87 85 75 55 35 62 70 69 68 66 65 65
128 125 122 123 121 121 121 121 119 119 118 116 114 109 102 100 102 102 102 102 101 99 94 89 82 75 67 60 55 55 65 84 88 82 66 38 58 67 68 66 63 61 61
129 132 130 125 123 120 120 122 120 119 117 115 114 109 103 99 98 97 95 102 104 102 99 94 87 77 64 53 48 49 58 74 86 89 75 59 58 63 65 62 56 53 50
145 148 144 138 134 129 128 130 126 124 125 123 121 119 109 100 96 96 102 104 107 107 106 102 93 79 55 36 30 35 48 52 95 112 132 131 87 63 58 49 24 6 352
164 166 162 153 149 143 139 136 132 132 134 131 133 128 119 118 115 111 108 111 112 114 113 111 101 77 47 14 4 17 28 35 73 215 239 226 230 269 282 277 278 280 278
167 168 171 165 160 156 147 152 148 142 146 146 149 147 135 127 122 115 112 111 114 116 107 109 88 47 339 319 335 341 340 10 316 269 260 248 252 267 275 272 269 268 268
169 174 174 170 167 165 158 162 161 160 165 166 169 161 148 143 148 153 153 158 159 159 169 175 193 228 241 253 269 303 315 306 277 262 261 256 257 265 274 276 273 270 268
173 175 175 172 172 170 165 171 171 174 178 178 172 171 164 160 167 172 177 182 188 188 191 199 215 232 253 277 282 280 284 284 277 263 261 260 260 263 271 276 278 278 276
179 176 173 174 175 172 174 176 176 178 176 174 179 180 174 169 170 175 183 190 197 198 199 201 210 222 248 272 282 281 277 276 270 268 260 262 261 264 269 275 279 282 283
182 178 176 176 175 176 178 178 176 179 175 179 185 183 179 176 176 177 182 192 199 194 192 197 216 234 269 278 280 279 276 273 271 268 264 257 261 264 267 273 278 282 285
182 183 182 177 176 179 178 176 175 177 178 183 183 184 186 184 180 177 184 198 195 182 182 193 208 242 266 269 275 278 274 274 270 266 265 264 263 265 269 273 278 281 285
187 185 185 182 181 181 177 174 172 173 180 182 181 185 190 187 182 180 193 202 189 184 193 199 205 215 260 274 279 282 276 268 268 271 271 270 267 264 265 276 278 280 284
189 186 186 186 185 178 172 167 167 173 183 181 184 189 188 189 185 183 193 200 186 189 205 207 219 221 248 271 286 282 273 267 266 265 269 275 274 271 271 274 278 281 283
186 186 187 187 186 180 178 182 185 192 187 187 188 189 190 191 191 189 191 195 190 200 211 207 205 232 258 261 302 302 288 272 270 267 266 275 281 282 284 278 275 275 283
188 189 188 189 188 187 189 186 182 176 185 191 191 197 196 196 197 196 196 198 197 202 209 204 193 205 244 196 227 311 319 324 319 276 277 273 278 290 287 282 280 276 274
192 191 190 190 188 188 180 169 161 168 182 195 202 204 205 201 200 199 203 202 197 195 210 212 202 205 231 225 201 229 283 295 316 302 290 283 283 286 283 283 280 277 277
196 191 189 187 187 185 179 181 180 191 200 202 192 194 200 203 204 201 198 193 192 195 209 214 206 205 213 238 224 226 239 264 289 304 300 289 291 288 284 282 281 280 279
188 184 185 183 186 184 184 187 188 195 195 179 176 184 193 191 189 183 181 183 190 196 205 209 208 211 213 231 231 226 241 247 238 272 294 300 295 273 274 275 277 281 284
164 171 176 178 185 185 185 186 188 190 184 177 180 179 175 160 156 162 159 162 163 165 184 202 206 216 229 237 247 237 243 260 266 270 290 302 301 294 278 268 274 281 289